Weather History for KOZW - October, 2010

Change the Weather History Date:

Wednesday, October 20, 2010

  Actual Average Record
Temperature  
Mean Temperature 52 °F -  
Max Temperature 64 °F 57 °F 78 °F (2003)
Min Temperature 39 °F 39 °F 33 °F (2002)
Degree Days  
Heating Degree Days 14    
Growing Degree Days 2 (Base 50)    
Moisture  
Dew Point 34 °F    
Average Humidity 56    
Maximum Humidity 81    
Minimum Humidity 30    
Precipitation  
Precipitation 0.00 in - - ()
Sea Level Pressure  
Sea Level Pressure 29.75 in    
Wind  
Wind Speed 8 mph (SW)    
Max Wind Speed 23 mph    
Max Gust Speed 31 mph    
Visibility 10 miles    
Events      
Averages and records for this station are not official NWS values.
T = Trace of Precipitation, MM = Missing Value Source: NWS Daily Summary

Daily Weather History Graph

Daily Weather History Graph

Search for Another Location

Airport or City:

Trip Planner

Search our weather history database for the weather conditions in past years. The results will help you decide how hot, cold, wet, or windy it might be!

Date:

Astronomy

Oct. 20, 2010 Rise Set
Actual Time 7:54 AM EDT 6:45 PM EDT
Civil Twilight 7:26 AM EDT 7:14 PM EDT
Nautical Twilight 6:53 AM EDT 7:47 PM EDT
Astronomical Twilight 6:20 AM EDT 8:19 PM EDT
Moon 5:20 PM EDT (10/20) 5:34 AM EDT (10/20)
Length of Visible Light 11h 48m
Length of Day
10h 50m
Waxing Gibbous, 95% of the Moon is Illuminated
Oct 20
Waxing Gibbous
Oct 22
Full
Oct 30
Last Quarter
Nov 6
New
Nov 13
First Quarter

Hourly Weather History & Observations

Time (EDT) Temp. Windchill Dew Point Humidity Pressure Visibility Wind Dir Wind Speed Gust Speed Precip Events Conditions
12:15 AM 41.0 °F 39.0 °F 32.0 °F 70% 29.90 in 10.0 mi SW 3.5 mph - N/A   Clear
12:35 AM 39.2 °F - 33.8 °F 81% 29.90 in 10.0 mi Calm Calm - N/A   Clear
12:55 AM 41.0 °F 39.0 °F 33.8 °F 76% 29.89 in 10.0 mi SW 3.5 mph - N/A   Clear
1:15 AM 41.0 °F - 33.8 °F 76% 29.88 in 10.0 mi Calm Calm - N/A   Clear
1:35 AM 41.0 °F - 33.8 °F 76% 29.88 in 10.0 mi Calm Calm - N/A   Clear
1:55 AM 41.0 °F 39.0 °F 33.8 °F 76% 29.88 in 10.0 mi SSW 3.5 mph - N/A   Clear
2:15 AM 41.0 °F 39.0 °F 33.8 °F 76% 29.88 in 10.0 mi SSW 3.5 mph - N/A   Clear
2:35 AM 41.0 °F 39.0 °F 33.8 °F 76% 29.87 in 10.0 mi SSW 3.5 mph - N/A   Clear
2:55 AM 39.2 °F 35.9 °F 33.8 °F 81% 29.86 in 10.0 mi SSW 4.6 mph - N/A   Clear
3:15 AM 41.0 °F 37.1 °F 33.8 °F 76% 29.86 in 10.0 mi SSW 5.8 mph - N/A   Clear
3:35 AM 41.0 °F 37.1 °F 33.8 °F 76% 29.85 in 10.0 mi SSW 5.8 mph - N/A   Clear
3:55 AM 41.0 °F 38.0 °F 33.8 °F 76% 29.85 in 10.0 mi SSW 4.6 mph - N/A   Clear
4:15 AM 41.0 °F 38.0 °F 33.8 °F 76% 29.84 in 10.0 mi SSW 4.6 mph - N/A   Clear
4:35 AM 41.0 °F 38.0 °F 33.8 °F 76% 29.84 in 10.0 mi SSW 4.6 mph - N/A   Clear
4:55 AM 41.0 °F 38.0 °F 33.8 °F 76% 29.83 in 10.0 mi South 4.6 mph - N/A   Clear
5:15 AM 41.0 °F 37.1 °F 33.8 °F 76% 29.83 in 10.0 mi SSW 5.8 mph - N/A   Clear
5:35 AM 41.0 °F 38.0 °F 33.8 °F 76% 29.82 in 10.0 mi SSW 4.6 mph - N/A   Clear
5:55 AM 41.0 °F 37.1 °F 33.8 °F 76% 29.82 in 10.0 mi SSW 5.8 mph - N/A   Clear
6:15 AM 42.8 °F 39.3 °F 33.8 °F 70% 29.81 in 10.0 mi SSW 5.8 mph - N/A   Clear
6:35 AM 42.8 °F 39.3 °F 33.8 °F 70% 29.80 in 10.0 mi SSW 5.8 mph - N/A   Clear
6:55 AM 42.8 °F 39.3 °F 33.8 °F 70% 29.80 in 10.0 mi SSW 5.8 mph - N/A   Clear
7:15 AM 42.8 °F 39.3 °F 33.8 °F 70% 29.79 in 10.0 mi SSW 5.8 mph - N/A   Clear
7:35 AM 42.8 °F 38.0 °F 33.8 °F 70% 29.78 in 10.0 mi SSW 8.1 mph - N/A   Clear
7:55 AM 44.6 °F 40.7 °F 33.8 °F 66% 29.78 in 10.0 mi SSW 6.9 mph - N/A   Clear
8:15 AM 42.8 °F 38.0 °F 33.8 °F 70% 29.78 in 10.0 mi SSW 8.1 mph - N/A   Clear
8:35 AM 44.6 °F 39.2 °F 33.8 °F 66% 29.77 in 10.0 mi SSW 10.4 mph 16.1 mph N/A   Clear
8:55 AM 44.6 °F 40.2 °F 35.6 °F 71% 29.77 in 10.0 mi SSW 8.1 mph - N/A   Clear
9:15 AM 46.4 °F 41.9 °F 35.6 °F 66% 29.77 in 10.0 mi SW 9.2 mph - N/A   Clear
9:35 AM 48.2 °F - 35.6 °F 62% 29.76 in 10.0 mi SW 10.4 mph 19.6 mph N/A   Clear
9:55 AM 50.0 °F - 37.4 °F 62% 29.75 in 10.0 mi SW 10.4 mph 18.4 mph N/A   Clear
10:15 AM 51.8 °F - 37.4 °F 58% 29.75 in 10.0 mi SW 12.7 mph 17.3 mph N/A   Clear
10:35 AM 53.6 °F - 35.6 °F 51% 29.74 in 10.0 mi SW 12.7 mph 16.1 mph N/A   Clear
10:55 AM 55.4 °F - 37.4 °F 51% 29.73 in 10.0 mi SW 12.7 mph 18.4 mph N/A   Scattered Clouds
11:15 AM 55.4 °F - 35.6 °F 47% 29.73 in 10.0 mi SW 11.5 mph 21.9 mph N/A   Mostly Cloudy
11:35 AM 57.2 °F - 37.4 °F 48% 29.72 in 10.0 mi SW 12.7 mph 26.5 mph N/A   Scattered Clouds
11:55 AM 59.0 °F - 35.6 °F 42% 29.71 in 10.0 mi SW 15.0 mph 23.0 mph N/A   Clear
12:15 PM 60.8 °F - 35.6 °F 39% 29.71 in 10.0 mi WSW 16.1 mph 23.0 mph N/A   Clear
12:35 PM 60.8 °F - 35.6 °F 39% 29.71 in 10.0 mi WSW 17.3 mph 21.9 mph N/A   Clear
12:55 PM 62.6 °F - 33.8 °F 34% 29.70 in 10.0 mi SW 18.4 mph 24.2 mph N/A   Clear
1:15 PM 60.8 °F - 33.8 °F 36% 29.69 in 10.0 mi WSW 18.4 mph 25.3 mph N/A   Clear
1:55 PM 62.6 °F - 33.8 °F 34% 29.67 in 10.0 mi WSW 17.3 mph 28.8 mph N/A   Scattered Clouds
2:15 PM 64.4 °F - 32.0 °F 30% 29.66 in 10.0 mi WSW 20.7 mph 27.6 mph N/A   Scattered Clouds
2:35 PM 62.6 °F - 33.8 °F 34% 29.65 in 10.0 mi WSW 19.6 mph 28.8 mph N/A   Scattered Clouds
2:55 PM 62.6 °F - 33.8 °F 34% 29.64 in 10.0 mi SW 19.6 mph 31.1 mph N/A   Scattered Clouds
3:15 PM 64.4 °F - 33.8 °F 32% 29.63 in 10.0 mi WSW 16.1 mph 28.8 mph N/A   Scattered Clouds
3:35 PM 64.4 °F - 33.8 °F 32% 29.63 in 10.0 mi WSW 19.6 mph 29.9 mph N/A   Scattered Clouds
3:55 PM 64.4 °F - 32.0 °F 30% 29.62 in 10.0 mi WSW 23.0 mph 29.9 mph N/A   Scattered Clouds
4:15 PM 64.4 °F - 32.0 °F 30% 29.62 in 10.0 mi WSW 18.4 mph 27.6 mph N/A   Mostly Cloudy
4:35 PM 64.4 °F - 32.0 °F 30% 29.62 in 10.0 mi WSW 19.6 mph 27.6 mph N/A   Overcast
4:55 PM 64.4 °F - 32.0 °F 30% 29.62 in 10.0 mi WSW 16.1 mph 28.8 mph N/A   Overcast
5:15 PM 62.6 °F - 32.0 °F 32% 29.62 in 10.0 mi WSW 18.4 mph 28.8 mph N/A   Overcast
5:35 PM 62.6 °F - 32.0 °F 32% 29.61 in 10.0 mi WSW 19.6 mph 31.1 mph N/A   Overcast
5:55 PM 60.8 °F - 32.0 °F 34% 29.61 in 10.0 mi WSW 12.7 mph 18.4 mph N/A   Mostly Cloudy
6:15 PM 60.8 °F - 32.0 °F 34% 29.60 in 10.0 mi WSW 13.8 mph 23.0 mph N/A   Clear
6:35 PM 60.8 °F - 32.0 °F 34% 29.60 in 10.0 mi WSW 9.2 mph 19.6 mph N/A   Clear
6:55 PM 59.0 °F - 32.0 °F 36% 29.60 in 10.0 mi WSW 10.4 mph - N/A   Mostly Cloudy
7:15 PM 59.0 °F - 32.0 °F 36% 29.59 in 10.0 mi WSW 11.5 mph 19.6 mph N/A   Overcast
7:35 PM 59.0 °F - 32.0 °F 36% 29.59 in 10.0 mi WSW 9.2 mph - N/A   Overcast
7:55 PM 59.0 °F - 32.0 °F 36% 29.58 in 10.0 mi WSW 8.1 mph - N/A   Overcast
8:15 PM 59.0 °F - 33.8 °F 39% 29.59 in 10.0 mi WSW 10.4 mph 17.3 mph N/A Rain Light Rain
8:35 PM 59.0 °F - 32.0 °F 36% 29.58 in 10.0 mi SW 5.8 mph - N/A   Overcast
8:55 PM 57.2 °F - 33.8 °F 41% 29.57 in 10.0 mi West 3.5 mph - N/A   Overcast
9:15 PM 57.2 °F - 33.8 °F 41% 29.56 in 10.0 mi Calm Calm - N/A Rain Light Rain
9:35 PM 55.4 °F - 37.4 °F 51% 29.60 in 10.0 mi NNW 17.3 mph 26.5 mph N/A Rain Light Rain
9:55 PM 50.0 °F - 44.6 °F 82% 29.63 in 4.0 mi NW 16.1 mph 23.0 mph N/A Rain Rain
10:15 PM 48.2 °F - 44.6 °F 87% 29.63 in 10.0 mi NNW 16.1 mph 25.3 mph N/A Rain Light Rain
10:35 PM 46.4 °F 40.4 °F 42.8 °F 87% 29.65 in 5.0 mi NNW 13.8 mph 26.5 mph N/A Rain Heavy Rain
10:55 PM 44.6 °F 37.4 °F 41.0 °F 87% 29.67 in 5.0 mi NW 16.1 mph 32.2 mph N/A Rain Rain
11:15 PM 44.6 °F 39.7 °F 41.0 °F 87% 29.67 in 4.0 mi WNW 9.2 mph - N/A Rain Rain
11:35 PM 42.8 °F 41.1 °F 39.2 °F 87% 29.63 in 5.0 mi WNW 3.5 mph 17.3 mph N/A Rain Rain
11:55 PM 42.8 °F 38.0 °F 41.0 °F 93% 29.65 in 10.0 mi WSW 8.1 mph - N/A   Drizzle